EW5191 Weather Reports


Display with metric or nautical units.
time (UTC)temp
F
wind
direction
speed
MPH
gust
MPH
rain 1hr
in
rain 24hr
in
rain mn
in
humidity
%
barometer
mb
20260831040028 68 275 0.0 2.0 0.00 0.00 0.00 42 1009.3
20260831034527 68 206 0.0 2.0 0.00 0.00 0.00 39 1009.3
20260831033028 68 264 2.0 4.0 0.00 0.00 0.00 34 1009.1
20260831031533 71 340 3.0 5.0 0.00 0.00 0.00 35 1008.7
20260831030027 71 295 4.0 8.0 0.00 0.00 0.00 26 1008.4
20260831024527 72 250 3.0 7.0 0.00 0.00 0.00 24 1008.2
20260831023026 74 231 7.0 14.0 0.00 0.00 0.00 23 1007.9
20260831021529 76 249 9.0 16.0 0.00 0.00 0.00 22 1007.5
20260831020026 76 253 11.0 16.0 0.00 0.00 0.00 22 1007.2
20260831014523 77 245 11.0 16.0 0.00 0.00 0.00 22 1007.0
20260831013037 78 230 12.0 17.0 0.00 0.00 0.00 22 1006.9
20260831011522 78 215 9.0 16.0 0.00 0.00 0.00 22 1006.8
20260831010022 78 320 0.0 10.0 0.00 0.00 0.00 32 1007.0
20260831004521 79 300 3.0 9.0 0.00 0.00 0.00 31 1006.7
20260831003024 80 38 0.0 9.0 0.00 0.00 0.00 27 1006.6
20260831001525 81 332 9.0 23.0 0.00 0.00 0.00 28 1006.4
20260831000017 83 228 10.0 17.0 0.00 0.00 0.00 20 1006.4
20260830234515 82 263 7.0 17.0 0.00 0.00 0.00 20 1006.4
20260830233013 82 219 11.0 16.0 0.00 0.00 0.00 21 1006.3
20260830231512 83 223 12.0 17.0 0.00 0.00 0.00 20 1006.2
20260830230012 81 13 2.0 8.0 0.00 0.00 0.00 30 1006.4
20260830224515 81 34 1.0 5.0 0.00 0.00 0.00 30 1006.4
20260830223008 80 142 2.0 5.0 0.00 0.00 0.00 33 1006.5
20260830221510 79 128 0.0 8.0 0.00 0.00 0.00 34 1006.6
20260830220004 79 41 7.0 13.0 0.00 0.00 0.00 37 1006.8
20260830214506 78 360 8.0 12.0 0.00 0.02 0.00 39 1007.0
20260830213101 78 19 7.0 11.0 0.00 0.02 0.00 39 1007.1
20260830211558 77 39 8.0 12.0 0.00 0.02 0.00 41 1007.3
20260830210014 77 25 9.0 15.0 0.00 0.02 0.00 40 1007.6